Location: Elstree
(51.6403°N, 0.2969°W)
Time: 01:45:26
(UTC+00:00)

Envisat - Pass Details

Date: 06 December 2022
Orbit: 763 x 765 km, 98.2° (Epoch: 08 February)

Event Time Altitude Azimuth Distance (km) Brightness Sun altitude
Rises 05:45:00 0° 7° (N) 3,248 6.2 -18.5°
Reaches altitude 10° 05:47:38 10° 355° (N) 2,317 5.3 -18.1°
Enters shadow 05:50:34 23° 323° (NW) 1,583 4.2 -17.7°
